Regional Weather Roundup
Issued by NWS

Home | Current Version | Previous Version | Text Only | Print | Product List | Glossary On
Versions: 1 2 3 4 5 6 7 8 9 10 11 12 13 14 15 16 17 18 19 20 21 22 23 24 25 26 27 28 29 30 31 32 33 34 35 36 37 38 39 40 41 42 43 44 45 46 47 48 49 50
000
ASUS43 KLSX 291607
RWRMO

WEATHER SUMMARY FOR MISSOURI
NATIONAL WEATHER SERVICE SPRINGFIELD MO
1100 AM CDT WED MAR 29 2017

NOTE: "FAIR" INDICATES FEW OR NO CLOUDS BELOW 12,000 FEET WITH NO
       SIGNIFICANT WEATHER AND/OR OBSTRUCTIONS TO VISIBILITY.
       CURRENT SKY AND/OR WEATHER CONDITIONS ARE NOT AVAILABLE FOR
       CHILLICOTHE AND FARMINGTON.

MOZ001>031-035>038-043-044-053-054-291700-
...NORTHERN AND WESTERN MISSOURI...

CITY           SKY/WX    TMP DP  RH WIND       PRES   REMARKS
KANSAS CTY INT LGT RAIN  49  47  93 E22G30    29.79S
KANSAS C DTWN  LGT RAIN  50  48  93 E18G24    29.78F
LEE`S SUMMIT   LGT RAIN  50  49  96 E21G31    29.78F
ST JOSEPH      HVY RAIN  48  48 100 E13       29.84R FOG
CHILLICOTHE      N/A     48  45  89 E12G25    29.90F
KIRKSVILLE     CLOUDY    44  44 100 E18G26    29.97F

$$
MOZ066>068-077>081-088>096-101>105-291700-
...SOUTHWEST MISSOURI...

CITY           SKY/WX    TMP DP  RH WIND       PRES   REMARKS
SPRINGFIELD    LGT RAIN  58  54  86 SE23G30   29.79F
JOPLIN         CLOUDY    62  57  83 SE16G26   29.68R
BRANSON        LGT RAIN  55  55 100 E16G23    29.82F

$$
MOZ032>034-039>042-045>050-055>058-069>072-291700-
...CENTRAL MISSOURI...

CITY           SKY/WX    TMP DP  RH WIND       PRES   REMARKS
COLUMBIA       CLOUDY    50  48  93 E17G25    29.93F
JEFFERSON CITY CLOUDY    54  49  83 E10       29.92F
ROLLA          CLOUDY    59  53  80 E20G26    29.90F
SEDALIA          N/A     52  32  46 E15       29.88S
WHITEMAN AFB   LGT RAIN  50  50 100 E16G26    29.83R FOG
WARRENSBURG    LGT RAIN  50  50 100 E16       29.83R
OSAGE BEACH    CLOUDY    58  53  84 E9        29.88F

$$
MOZ051-052-059>065-291700-
...EAST CENTRAL MISSOURI...

CITY           SKY/WX    TMP DP  RH WIND       PRES   REMARKS
ST LOUIS INTL  CLOUDY    54  47  77 E15       30.04R
SPIRIT OF STL  CLOUDY    53  49  86 NE8       30.04R
ST CHARLES     CLOUDY    51  49  92 N7        30.07R

$$
MOZ072>076-082>087-097>100-106>115-291700-
...SOUTH CENTRAL AND SOUTHEAST MISSOURI...

CITY           SKY/WX    TMP DP  RH WIND       PRES   REMARKS
CAPE GIRARDEAU PTSUNNY   62  54  74 E13       30.00F
FARMINGTON     CLOUDY    58  53  84 SE9       30.00F
POPLAR BLUFF   PTSUNNY   62  56  80 E10       29.99R
WEST PLAINS    CLOUDY    60  55  83 SE15      29.93R

$$



USA.gov is the U.S. government's official web portal to all federal, state and local government web resources and services.